DW1389 Weather Reports


Display with metric or nautical units.
time (UTC)temp
F
wind
direction
speed
MPH
gust
MPH
rain 1hr
in
rain 24hr
in
rain mn
in
humidity
%
barometer
mb
20260508141930 64 205 2.0 4.0 0.00 0.01 0.00 84 1013.0
20260508141430 64 106 2.0 5.0 0.00 0.01 0.00 85 1013.1
20260508140918 64 83 2.0 5.0 0.00 0.01 0.00 84 1013.1
20260508140415 64 41 2.0 4.0 0.00 0.01 0.00 85 1013.0
20260508140142 63 41 3.0 4.0 0.00 0.01 0.00 85 1013.1
20260508135415 63 54 2.0 4.0 0.00 0.01 0.00 85 1013.1
20260508135140 64 50 3.0 4.0 0.00 0.01 0.00 84 1013.2
20260508134416 63 206 3.0 4.0 0.00 0.01 0.00 84 1013.2
20260508133915 63 31 3.0 5.0 0.00 0.01 0.00 84 1013.0
20260508133406 63 36 3.0 5.0 0.00 0.01 0.00 84 1013.2
20260508132907 63 5 3.0 6.0 0.00 0.01 0.00 84 1013.2
20260508132650 63 235 3.0 9.0 0.00 0.01 0.00 85 1013.3
20260508131901 62 231 4.0 9.0 0.00 0.01 0.00 85 1013.4
20260508131401 62 38 4.0 9.0 0.00 0.01 0.00 85 1013.3
20260508130901 62 34 3.0 7.0 0.00 0.01 0.00 86 1013.3
20260508130403 62 38 3.0 6.0 0.00 0.01 0.00 86 1013.2
20260508125904 62 167 3.0 6.0 0.00 0.01 0.00 86 1013.3
20260508125402 62 271 3.0 5.0 0.00 0.01 0.00 85 1013.1
20260508124900 62 251 3.0 4.0 0.00 0.01 0.00 85 1013.1
20260508124401 62 238 3.0 4.0 0.00 0.01 0.00 85 1013.3
20260508123901 62 233 2.0 5.0 0.00 0.01 0.00 85 1013.4
20260508123401 62 238 3.0 7.0 0.00 0.01 0.00 85 1013.5
20260508122901 62 31 4.0 7.0 0.00 0.01 0.00 85 1013.5
20260508122401 62 34 4.0 7.0 0.00 0.01 0.00 85 1013.6
20260508121901 61 41 4.0 8.0 0.00 0.01 0.00 85 1013.5
20260508121403 61 34 4.0 8.0 0.00 0.01 0.00 85 1013.5
20260508120901 61 17 4.0 5.0 0.00 0.01 0.00 86 1013.6
20260508120401 61 27 3.0 5.0 0.00 0.01 0.00 85 1013.7
20260508120130 62 27 3.0 7.0 0.00 0.01 0.00 85 1013.7
20260508115402 62 237 3.0 8.0 0.00 0.01 0.00 84 1013.9
20260508114901 62 330 3.0 8.0 0.00 0.01 0.00 84 1013.8
20260508114401 62 30 4.0 6.0 0.00 0.01 0.00 84 1013.9
20260508113901 62 33 3.0 6.0 0.00 0.01 0.00 85 1014.0
20260508113401 62 19 4.0 8.0 0.00 0.01 0.00 85 1014.1
20260508112902 62 235 4.0 8.0 0.00 0.01 0.00 85 1014.0
20260508112641 61 33 4.0 8.0 0.00 0.01 0.00 85 1014.0
20260508111902 61 38 5.0 9.0 0.00 0.01 0.00 85 1013.9
20260508111402 62 28 4.0 9.0 0.00 0.01 0.00 85 1013.6
20260508110903 62 28 4.0 8.0 0.00 0.01 0.00 85 1013.6
20260508110402 62 19 4.0 8.0 0.00 0.01 0.00 84 1013.6
20260508105900 62 28 4.0 8.0 0.00 0.01 0.00 85 1013.6
20260508105721 62 9 3.0 8.0 0.00 0.01 0.00 85 1013.6
20260508105427 62 31 4.0 8.0 0.00 0.01 0.00 85 1013.5
20260508104401 62 289 4.0 9.0 0.00 0.01 0.00 84 1013.4
20260508103901 62 32 4.0 9.0 0.00 0.01 0.00 84 1013.3
20260508103402 62 33 3.0 9.0 0.00 0.01 0.00 84 1013.4
20260508102903 62 25 2.0 6.0 0.00 0.01 0.00 84 1013.7
20260508102402 62 7 3.0 7.0 0.00 0.01 0.00 84 1013.8
20260508101901 62 223 4.0 8.0 0.00 0.01 0.00 84 1014.0
20260508101402 62 37 3.0 8.0 0.00 0.01 0.00 83 1014.0
20260508100902 62 316 2.0 7.0 0.00 0.01 0.00 83 1014.0
20260508100402 62 181 2.0 9.0 0.00 0.01 0.00 83 1014.1
20260508095901 62 333 3.0 12.0 0.00 0.01 0.00 83 1014.2
20260508095402 62 358 3.0 12.0 0.00 0.01 0.00 83 1014.2
20260508094902 62 47 2.0 6.0 0.00 0.01 0.00 83 1014.2
20260508094627 62 215 2.0 6.0 0.00 0.01 0.00 84 1014.1
20260508093902 62 31 2.0 6.0 0.00 0.01 0.00 84 1014.1
20260508093635 62 33 2.0 5.0 0.00 0.01 0.00 83 1014.1
20260508092902 62 309 3.0 5.0 0.00 0.01 0.00 83 1014.1
20260508092401 62 300 3.0 4.0 0.00 0.01 0.00 83 1013.9
20260508091901 62 295 3.0 4.0 0.00 0.01 0.00 84 1013.8
20260508091401 62 304 2.0 4.0 0.00 0.01 0.00 84 1013.8
20260508090901 62 3 3.0 5.0 0.00 0.01 0.00 84 1013.8
20260508090402 62 341 2.0 5.0 0.00 0.01 0.00 84 1013.6
20260508085849 62 311 2.0 5.0 0.00 0.01 0.00 84 1013.5
20260508085348 62 1 3.0 8.0 0.00 0.01 0.00 84 1013.4
20260508084845 62 18 3.0 8.0 0.00 0.01 0.00 84 1013.6
20260508084346 62 38 4.0 8.0 0.00 0.01 0.00 84 1013.6
20260508083846 62 229 4.0 8.0 0.00 0.01 0.00 84 1013.7
20260508083346 62 233 4.0 7.0 0.00 0.01 0.00 84 1013.7
20260508082846 61 236 3.0 7.0 0.00 0.01 0.00 84 1013.7
20260508082345 61 24 3.0 6.0 0.00 0.01 0.00 84 1013.8
20260508081846 61 257 4.0 7.0 0.00 0.01 0.00 85 1013.8
20260508081346 61 346 5.0 9.0 0.00 0.01 0.00 85 1013.5
20260508080846 61 313 5.0 9.0 0.00 0.01 0.00 85 1013.5
20260508080346 61 0 5.0 7.0 0.00 0.01 0.00 85 1013.6
20260508075846 61 25 5.0 8.0 0.00 0.01 0.00 85 1013.5
20260508075348 61 15 5.0 8.0 0.00 0.01 0.00 85 1013.4
20260508075127 61 30 4.0 8.0 0.00 0.01 0.00 85 1013.3
20260508074340 61 7 5.0 8.0 0.00 0.01 0.00 85 1013.3
20260508073840 61 34 5.0 8.0 0.00 0.01 0.00 85 1013.5
20260508073618 61 37 4.0 8.0 0.00 0.01 0.00 85 1013.6
20260508072834 61 35 4.0 8.0 0.00 0.01 0.00 85 1013.7
20260508072334 61 33 4.0 8.0 0.00 0.01 0.00 85 1013.6
20260508071835 61 33 4.0 8.0 0.00 0.01 0.00 85 1013.6
20260508071400 61 18 3.0 6.0 0.00 0.01 0.00 85 1014.0
20260508071350 61 30 4.0 8.0 0.00 0.01 0.00 85 1013.7
20260508070329 61 16 3.0 5.0 0.00 0.01 0.00 86 1014.1
20260508070108 61 7 3.0 5.0 0.00 0.01 0.00 86 1014.1
20260508065323 61 22 3.0 5.0 0.00 0.01 0.00 85 1014.0
20260508064823 61 14 3.0 5.0 0.00 0.01 0.00 85 1014.2
20260508064320 61 26 3.0 6.0 0.00 0.01 0.00 84 1014.3
20260508063805 60 19 3.0 6.0 0.00 0.01 0.00 85 1014.4
20260508063305 60 36 2.0 6.0 0.00 0.01 0.00 85 1014.5
20260508062804 60 239 2.0 4.0 0.00 0.01 0.00 86 1014.8
20260508062306 60 214 2.0 4.0 0.00 0.01 0.00 85 1015.0
20260508061804 60 211 2.0 4.0 0.00 0.01 0.00 85 1014.8
20260508061304 60 232 2.0 4.0 0.00 0.01 0.00 85 1014.6
20260508060804 60 275 3.0 4.0 0.00 0.01 0.00 85 1014.4
20260508060303 60 12 3.0 4.0 0.00 0.01 0.00 86 1014.4
20260508055803 60 341 2.0 4.0 0.00 0.01 0.00 86 1014.3
20260508055305 60 237 2.0 4.0 0.00 0.01 0.00 86 1014.4
20260508054803 60 236 2.0 4.0 0.00 0.01 0.00 85 1014.6
20260508054302 60 231 2.0 5.0 0.00 0.01 0.00 85 1014.5
20260508053802 60 36 2.0 5.0 0.00 0.01 0.00 85 1014.5
20260508053302 60 233 2.0 5.0 0.00 0.01 0.00 86 1014.4
20260508052802 60 247 2.0 5.0 0.00 0.01 0.00 86 1014.3
20260508052530 60 279 3.0 6.0 0.00 0.01 0.00 87 1014.2
20260508051803 60 248 3.0 6.0 0.00 0.01 0.00 87 1014.2
20260508051303 61 7 3.0 5.0 0.00 0.01 0.00 86 1014.2
20260508050802 61 2 2.0 4.0 0.00 0.01 0.00 86 1014.3
20260508050302 61 10 2.0 4.0 0.00 0.01 0.00 86 1014.6
20260508045802 60 24 3.0 6.0 0.00 0.01 0.01 86 1015.0
20260508045301 60 13 3.0 6.0 0.00 0.01 0.01 86 1015.2
20260508045031 60 268 2.0 5.0 0.00 0.01 0.01 86 1014.9
20260508044527 60 319 2.0 5.0 0.00 0.01 0.01 86 1014.7
20260508043800 60 254 2.0 6.0 0.00 0.01 0.01 86 1014.3
20260508043254 60 325 2.0 6.0 0.00 0.01 0.01 86 1014.1
20260508042751 60 37 2.0 6.0 0.00 0.01 0.01 86 1014.1
20260508042741 60 237 2.0 4.0 0.00 0.01 0.01 86 1014.7
20260508041736 60 290 2.0 4.0 0.00 0.01 0.01 86 1015.2
20260508041237 60 235 2.0 4.0 0.00 0.01 0.01 86 1014.9
20260508041008 60 219 2.0 4.0 0.00 0.01 0.01 86 1014.7
20260508040508 60 223 1.0 4.0 0.00 0.01 0.01 86 1014.9
20260508035737 60 231 2.0 4.0 0.00 0.01 0.01 86 1015.0
20260508035237 60 232 2.0 4.0 0.00 0.01 0.01 86 1015.2
20260508035008 60 238 2.0 4.0 0.00 0.01 0.01 86 1015.3
20260508034731 61 219 2.0 4.0 0.00 0.01 0.01 85 1015.3
20260508033731 61 22 2.0 5.0 0.00 0.01 0.01 85 1015.3
20260508033230 61 215 2.0 6.0 0.00 0.01 0.01 85 1015.6
20260508032730 61 222 3.0 7.0 0.00 0.01 0.01 85 1015.9
20260508032229 61 223 3.0 7.0 0.00 0.01 0.01 85 1015.7
20260508031730 61 224 2.0 7.0 0.00 0.01 0.01 85 1015.3
20260508031231 61 235 2.0 5.0 0.00 0.01 0.01 85 1014.7
20260508030731 61 238 2.0 5.0 0.00 0.01 0.01 85 1014.6
20260508030230 61 280 3.0 5.0 0.00 0.01 0.01 84 1014.8
20260508030013 61 235 2.0 5.0 0.00 0.01 0.01 84 1014.7
20260508025229 61 231 3.0 7.0 0.00 0.01 0.01 84 1014.4
20260508024730 61 24 4.0 7.0 0.00 0.01 0.01 83 1014.3
20260508024225 61 286 4.0 7.0 0.00 0.01 0.01 83 1014.2
20260508023729 61 25 4.0 7.0 0.00 0.01 0.01 83 1013.9
20260508023226 61 19 4.0 6.0 0.00 0.01 0.01 83 1013.5
20260508022725 61 17 4.0 6.0 0.00 0.01 0.01 83 1013.3
20260508022223 61 15 3.0 6.0 0.00 0.01 0.01 83 1013.3
20260508021723 61 16 3.0 7.0 0.00 0.01 0.01 83 1013.2
20260508021214 62 15 3.0 7.0 0.00 0.01 0.01 82 1013.2
20260508020714 62 2 2.0 6.0 0.00 0.01 0.01 81 1013.4
20260508020214 62 252 4.0 10.0 0.00 0.01 0.01 81 1013.5
20260508015715 62 15 5.0 10.0 0.00 0.01 0.01 80 1013.5
20260508015214 62 38 4.0 8.0 0.00 0.01 0.01 80 1013.6
20260508014714 62 33 3.0 6.0 0.00 0.01 0.01 80 1013.8
20260508014214 62 45 3.0 6.0 0.00 0.01 0.01 80 1013.5
20260508013709 62 52 2.0 3.0 0.00 0.01 0.01 80 1013.6
20260508013206 62 48 2.0 3.0 0.00 0.01 0.01 80 1013.6
20260508012707 62 39 2.0 3.0 0.00 0.01 0.01 79 1013.3
20260508012206 62 47 2.0 4.0 0.00 0.01 0.01 79 1013.5
20260508011707 63 42 3.0 4.0 0.00 0.01 0.01 78 1013.6
20260508011202 63 47 2.0 4.0 0.00 0.01 0.01 77 1013.6
20260508010932 63 46 2.0 4.0 0.00 0.01 0.01 75 1013.8
20260508010433 63 46 2.0 4.0 0.00 0.01 0.01 75 1014.4
20260508005702 63 45 2.0 4.0 0.00 0.01 0.01 75 1014.2
20260508005202 63 46 2.0 4.0 0.00 0.01 0.01 75 1013.9
20260508004701 64 44 2.0 4.0 0.00 0.01 0.01 75 1013.8
20260508004440 64 45 2.0 4.0 0.00 0.01 0.01 74 1014.0
20260508004203 64 46 2.0 4.0 0.00 0.01 0.01 73 1013.9
20260508003202 64 46 2.0 4.0 0.00 0.01 0.01 74 1014.0
20260508002702 64 46 2.0 4.0 0.00 0.01 0.01 73 1014.1
20260508002201 64 46 2.0 4.0 0.00 0.01 0.01 72 1014.5
20260508001701 65 45 2.0 4.0 0.00 0.01 0.01 71 1014.6
20260508001202 65 46 2.0 4.0 0.00 0.01 0.01 71 1014.7
20260508000701 65 45 3.0 9.0 0.00 0.01 0.01 70 1014.8
20260508000521 65 27 4.0 10.0 0.00 0.01 0.01 70 1015.2
20260508000516 65 46 4.0 10.0 0.00 0.01 0.01 70 1015.2
20260507235201 65 28 4.0 10.0 0.00 0.01 0.01 69 1015.0
20260507234700 65 24 4.0 10.0 0.00 0.01 0.01 69 1014.9
20260507234201 65 36 4.0 12.0 0.00 0.01 0.01 70 1014.6
20260507233701 65 28 4.0 12.0 0.00 0.01 0.01 69 1014.9
20260507233201 65 32 4.0 10.0 0.00 0.01 0.01 69 1014.9
20260507232701 65 28 6.0 10.0 0.00 0.01 0.01 70 1014.5
20260507232201 65 26 7.0 11.0 0.00 0.01 0.01 70 1014.4
20260507231701 66 38 5.0 11.0 0.00 0.01 0.01 69 1014.5
20260507231201 66 46 3.0 9.0 0.00 0.01 0.01 68 1014.8
20260507230945 66 167 4.0 10.0 0.00 0.01 0.01 67 1015.0
20260507230450 66 223 4.0 10.0 0.00 0.01 0.01 68 1014.8
20260507225948 66 38 4.0 9.0 0.00 0.01 0.01 68 1014.7
20260507225201 66 19 4.0 10.0 0.00 0.01 0.01 68 1014.6
20260507224701 66 204 5.0 10.0 0.00 0.01 0.01 69 1014.6
20260507224201 66 48 5.0 10.0 0.00 0.01 0.01 68 1014.8
20260507223702 66 35 4.0 9.0 0.00 0.01 0.01 68 1015.0
20260507223202 66 41 4.0 11.0 0.00 0.01 0.01 67 1015.0
20260507222926 66 13 4.0 11.0 0.00 0.01 0.01 67 1015.0
20260507222202 67 66 4.0 12.0 0.00 0.01 0.01 67 1015.4
20260507221702 66 31 4.0 12.0 0.00 0.01 0.01 67 1015.5
20260507221149 66 59 4.0 11.0 0.00 0.01 0.01 67 1015.5
20260507220649 66 48 3.0 11.0 0.00 0.01 0.01 67 1015.2
20260507220149 66 49 3.0 11.0 0.00 0.01 0.01 67 1015.2
20260507215649 66 30 3.0 11.0 0.00 0.01 0.01 67 1015.5
20260507215152 66 44 4.0 12.0 0.00 0.01 0.01 67 1015.7
20260507214650 66 41 4.0 12.0 0.00 0.01 0.01 67 1015.7
20260507214147 66 25 3.0 10.0 0.00 0.01 0.01 67 1015.5
20260507213648 66 338 4.0 13.0 0.00 0.01 0.01 70 1015.7
20260507213148 65 27 5.0 13.0 0.00 0.01 0.01 71 1015.7
20260507212647 65 135 4.0 10.0 0.00 0.01 0.01 71 1015.7
20260507212146 65 46 4.0 10.0 0.01 0.01 0.01 71 1015.0
20260507211647 65 45 4.0 10.0 0.01 0.01 0.01 71 1014.9
20260507211429 65 40 4.0 12.0 0.01 0.01 0.01 70 1015.3
20260507210647 65 354 5.0 12.0 0.01 0.01 0.01 71 1015.4
20260507210146 65 27 4.0 11.0 0.01 0.01 0.01 71 1015.6
20260507205720 65 225 3.0 5.0 0.01 0.01 0.01 70 1016.1
20260507205711 65 47 3.0 9.0 0.01 0.01 0.01 71 1015.8
20260507204645 65 48 3.0 5.0 0.01 0.01 0.01 71 1016.1
20260507204427 65 49 2.0 5.0 0.01 0.01 0.01 71 1016.1
20260507203644 65 236 3.0 13.0 0.01 0.01 0.01 70 1016.2
20260507203141 65 325 5.0 13.0 0.01 0.01 0.01 70 1016.2
20260507202643 65 7 5.0 10.0 0.01 0.01 0.01 71 1016.2
20260507202142 64 18 5.0 11.0 0.00 0.00 0.00 72 1016.4
20260507201642 64 33 5.0 11.0 0.00 0.00 0.00 72 1016.1
20260507201143 64 34 5.0 11.0 0.00 0.00 0.00 72 1016.4
20260507200643 64 33 5.0 14.0 0.00 0.00 0.00 72 1016.2
20260507200143 64 30 5.0 14.0 0.00 0.00 0.00 73 1016.0
20260507195643 64 23 5.0 10.0 0.00 0.00 0.00 72 1016.4
20260507195424 64 35 4.0 9.0 0.00 0.00 0.00 72 1016.7
20260507194643 63 19 3.0 8.0 0.00 0.00 0.00 72 1016.7
20260507194143 63 48 5.0 9.0 0.00 0.00 0.00 73 1016.5
20260507193643 63 41 5.0 10.0 0.00 0.00 0.00 74 1016.5
20260507193142 63 42 6.0 21.0 0.00 0.00 0.00 74 1016.6
20260507192642 62 27 8.0 21.0 0.00 0.00 0.00 75 1016.9
20260507192144 62 25 8.0 18.0 0.00 0.00 0.00 74 1016.8
20260507191639 62 35 7.0 18.0 0.00 0.00 0.00 74 1016.8
20260507191423 62 46 7.0 16.0 0.00 0.00 0.00 75 1017.1
20260507190639 62 34 7.0 16.0 0.00 0.00 0.00 75 1017.1
20260507190137 62 16 6.0 16.0 0.00 0.00 0.00 75 1016.6
20260507185635 62 36 6.0 17.0 0.00 0.00 0.00 75 1016.7
20260507185413 63 45 7.0 17.0 0.00 0.00 0.00 75 1016.8
20260507184631 63 18 8.0 21.0 0.00 0.00 0.00 74 1016.9
20260507184131 62 34 9.0 21.0 0.00 0.00 0.00 75 1017.0
20260507183631 62 39 8.0 18.0 0.00 0.00 0.00 75 1016.9
20260507183132 62 27 7.0 18.0 0.00 0.00 0.00 75 1016.9
20260507182631 62 39 8.0 18.0 0.00 0.00 0.00 75 1016.7
20260507182131 62 5 7.0 16.0 0.00 0.00 0.00 74 1017.0
20260507181632 62 0 7.0 16.0 0.00 0.00 0.00 74 1017.1
20260507181131 62 18 4.0 14.0 0.00 0.00 0.00 74 1017.1
20260507180629 62 237 3.0 13.0 0.00 0.00 0.00 75 1017.4
20260507180129 62 207 3.0 13.0 0.00 0.00 0.00 75 1017.3
20260507175628 62 220 2.0 12.0 0.00 0.00 0.00 76 1017.0
20260507175129 62 227 2.0 12.0 0.00 0.00 0.00 75 1016.7
20260507174630 62 213 3.0 10.0 0.00 0.00 0.00 76 1017.0
20260507174128 62 221 2.0 10.0 0.00 0.00 0.00 77 1017.4
20260507173905 61 228 2.0 5.0 0.00 0.00 0.00 77 1017.1
20260507173129 61 215 3.0 14.0 0.00 0.00 0.00 79 1017.4
20260507172914 61 213 3.0 14.0 0.00 0.00 0.00 79 1017.2
20260507172129 60 195 3.0 18.0 0.00 0.00 0.00 79 1017.3
20260507171629 60 213 3.0 18.0 0.00 0.00 0.00 80 1016.9
20260507171129 60 191 2.0 10.0 0.00 0.00 0.00 80 1017.0
20260507170629 60 219 2.0 10.0 0.00 0.00 0.00 80 1017.0
20260507170130 60 214 2.0 3.0 0.00 0.00 0.00 80 1017.4
20260507165857 60 205 2.0 4.0 0.00 0.00 0.00 80 1017.3
20260507165130 60 206 2.0 6.0 0.00 0.00 0.00 80 1017.2
20260507164629 60 69 2.0 9.0 0.00 0.00 0.00 80 1017.4
20260507164128 60 66 2.0 9.0 0.00 0.00 0.00 81 1017.5
20260507163629 60 203 2.0 8.0 0.00 0.00 0.00 80 1018.0
20260507163129 60 53 3.0 8.0 0.00 0.00 0.00 81 1018.4
20260507162629 59 288 3.0 6.0 0.00 0.00 0.00 80 1018.9
20260507162129 59 180 2.0 6.0 0.00 0.00 0.00 81 1019.1
20260507161628 59 232 3.0 8.0 0.00 0.00 0.00 81 1018.8
20260507161412 59 17 3.0 8.0 0.00 0.00 0.00 81 1017.8
20260507160630 59 251 3.0 6.0 0.00 0.00 0.00 81 1018.5
20260507160129 59 13 3.0 6.0 0.00 0.00 0.00 80 1018.4
20260507155630 59 39 2.0 4.0 0.00 0.00 0.00 81 1018.4
20260507155354 59 26 2.0 7.0 0.00 0.00 0.00 82 1018.5
20260507154627 59 271 3.0 7.0 0.00 0.00 0.00 82 1018.2
20260507154127 59 26 4.0 9.0 0.00 0.00 0.00 82 1018.2
20260507153627 58 248 4.0 9.0 0.00 0.01 0.00 83 1018.0
20260507153127 59 10 2.0 8.0 0.00 0.01 0.00 83 1018.0
20260507152621 59 338 3.0 8.0 0.00 0.01 0.00 84 1018.5
20260507152121 58 210 3.0 7.0 0.00 0.01 0.00 84 1018.2
20260507151622 58 187 2.0 6.0 0.00 0.01 0.00 84 1018.2
20260507151121 58 48 3.0 8.0 0.00 0.01 0.00 84 1018.6
20260507150622 58 21 3.0 8.0 0.00 0.01 0.00 85 1018.2
20260507150124 58 28 3.0 8.0 0.00 0.01 0.00 85 1018.2
20260507145622 58 351 3.0 10.0 0.00 0.01 0.00 85 1018.3
20260507145122 58 223 3.0 10.0 0.00 0.01 0.00 86 1018.3
20260507144622 58 63 3.0 6.0 0.00 0.01 0.00 86 1018.1
20260507144122 58 35 4.0 9.0 0.00 0.01 0.00 86 1017.8
20260507143901 58 55 4.0 9.0 0.00 0.01 0.00 86 1017.8
20260507143122 58 46 4.0 8.0 0.00 0.01 0.00 86 1017.7
20260507142622 58 33 4.0 9.0 0.00 0.01 0.00 86 1017.6